Location: Newark
(59.4564°N, 26.6917°E)
Time: 10:24:09
(UTC+00:00)

S-56A Canister/Altair - Pass Details

Date: 17 November 2019
Orbit: 633 x 2499 km, 38.9° (Epoch: 11 December)

Event Time Altitude Azimuth Distance (km) Brightness Sun altitude
Rises 16:35:52 0° 219° (SW) 4,484 12.0 -21.1°
Reaches altitude 10° 16:42:55 10° 180° (S) 2,906 10.5 -22.0°
Maximum altitude 16:43:32 10° 175° (S) 2,846 10.4 -22.0°
Drops below altitude 10° 16:44:07 10° 169° (S) 2,806 10.3 -22.1°
Enters shadow 16:45:37 - 156° (SSE) 2,792 10.2 -22.3°
Sets 16:49:34 0° 126° (SE) 3,328 - -22.8°
